Regional Weather Roundup
Issued by NWS

Home | Current Version | Previous Version | Graphics & Text | Print | Product List | Glossary On
Versions: 1 2 3 4 5 6 7 8 9 10 11 12 13 14 15 16 17 18 19 20 21 22 23 24 25 26 27 28 29 30 31 32 33 34 35 36 37 38 39 40 41 42 43 44 45 46 47 48 49 50
000
ASUS43 KMKX 301500
RWRWI

WISCONSIN REGIONAL WEATHER ROUNDUP
NATIONAL WEATHER SERVICE MILWAUKEE/SULLIVAN WI
1000 AM CDT SAT AUG 30 2014

NOTE: "FAIR" INDICATES FEW OR NO CLOUDS BELOW 12,000 FEET WITH NO
SIGNIFICANT WEATHER AND/OR OBSTRUCTIONS TO VISIBILITY.

WIZ001-002-006>008-014>016-023>028-301600-
NORTHWEST WISCONSIN

CITY           SKY/WX    TMP DP  RH WIND       PRES   REMARKS
SUPERIOR ARPT  CLOUDY    65  61  87 NE5       29.85R
ASHLAND        CLOUDY    63  60  90 N10       29.85S
HAYWARD        CLOUDY    61  60  97 NE7       29.84R
SIREN          CLOUDY    63  61  93 NE8       29.84S
RICE LAKE      LGT RAIN  64  62  91 N9        29.83S
LADYSMITH      CLOUDY    64  63  96 N8        29.83R
EAU CLAIRE     PTSUNNY   69  66  90 N6        29.79S
MENOMONIE      CLOUDY    67  67  99 NW3       29.80S
NEW RICHMOND   CLOUDY    65  63  93 N7        29.83S
OSCEOLA        CLOUDY    65  65  99 N6        29.86R
$$

WIZ003>005-009-010-017-018-301600-
NORTH CENTRAL WISCONSIN

CITY           SKY/WX    TMP DP  RH WIND       PRES   REMARKS
WOODRUFF       LGT RAIN  64  62  93 N12       29.80R
RHINELANDER    CLOUDY    67  63  87 CALM      29.79S
EAGLE RIVER    CLOUDY    66  66 100 CALM      29.79S
LAND O LAKES   CLOUDY    63  62  97 N8        29.81R
PHILLIPS       CLOUDY    62  61  96 N5        29.81R
TOMAHAWK       CLOUDY    65  64  96 N3        29.79S
MEDFORD        CLOUDY    66  65  94 W6        29.79R
MERRILL        CLOUDY    67  66  95 NW3       29.78S
$$

WIZ029-030-035-036-043>047-301600-
CENTRAL WISCONSIN

CITY           SKY/WX    TMP DP  RH WIND       PRES   REMARKS
WAUSAU         CLOUDY    69  65  86 NW6       29.76R
MOSINEE        PTSUNNY   66  66 100 NW5       29.78R
MARSHFIELD     PTSUNNY   70  65  84 W10       29.78S
STEVENS POINT  CLOUDY    66  64  96 W5        29.78R
WAUPACA        CLOUDY    75  68  80 W12       29.75R
WAUTOMA        HVY RAIN  72  68  88 SW8       29.77R
WISC RAPIDS    CLOUDY    69  66  90 NW7       29.79R
CAMP DOUGLAS   NOT AVBL
$$

WIZ011>013-019>022-031-037>040-048>050-301600-
NORTHEAST WISCONSIN

CITY           SKY/WX    TMP DP  RH WIND       PRES   REMARKS
ANTIGO         CLOUDY    65  64  95 NW7       29.78R
STURGEON BAY   MOSUNNY   73  68  83 SW8       29.74S
GREEN BAY      PTSUNNY   75  70  84 S12G18    29.73S
MANITOWOC      NOT AVBL
APPLETON       PTSUNNY   72  66  83 SW13      29.75S
CLINTONVILLE   DRIZZLE   68  66  94 SW5       29.73S
OSHKOSH        CLOUDY    73  68  84 SW13      29.75S
$$

WIZ032>034-041-042-053>061-301600-
SOUTHWEST WISCONSIN

CITY           SKY/WX    TMP DP  RH WIND       PRES   REMARKS
LA CROSSE      CLOUDY    72  67  84 NW12      29.78R
SPARTA         HVY RAIN  67  66  96 CALM      29.79R VSB 1
VIROQUA        CLOUDY    67  67 100 W6        29.80R
BOSCOBEL       RAIN      71  67  87 SW7       29.79R FOG
PRAIRIE DU CHI RAIN      68  66  92 W6        29.79R
PLATTEVILLE    CLOUDY    70  68  93 SW13      29.82R
$$

WIZ056-057-062-063-064-067-068-301600-
SOUTH CENTRAL WISCONSIN

CITY           SKY/WX    TMP DP  RH WIND       PRES   REMARKS
BARABOO/DELLS  CLOUDY    70  65  84 W8        29.78R
LONE ROCK      NOT AVBL
WATERTOWN      PTSUNNY   73  68  86 SW14      29.79S
MADISON        LGT RAIN  72  66  81 S12       29.78S
MIDDLETON      CLOUDY    71  69  95 S9        29.79S
MONROE         CLOUDY    70  64  83 SW16G24   29.81S
JANESVILLE     CLOUDY    72  68  88 SW8       29.81S
$$

WIZ051-052-058>065-066-070>072-301600-
SOUTHEAST WISCONSIN

CITY           SKY/WX    TMP DP  RH WIND       PRES   REMARKS
MILWAUKEE      MOSUNNY   77  65  66 SW17      29.81S
WAUKESHA       PTSUNNY   73  66  78 SW12G21   29.82S
MILWAUKEE/TIMM MOSUNNY   73  64  73 SW16G22   29.81S
RACINE         MOSUNNY   78  67  68 SW13G23   29.83S HX  80
BURLINGTON     PTSUNNY   73  66  80 SW15G21   29.82S
KENOSHA        PTSUNNY   77  69  76 SW9G24    29.82F
FOND DU LAC    CLOUDY    72  68  87 SW10      29.76F
SHEBOYGAN      PTSUNNY   76  67  73 S16G25    29.77F
WEST BEND      PTSUNNY   73  63  68 SW14      29.79F
JUNEAU         CLOUDY    72  67  82 S14       29.80S
$$

LSZ147-162-301600-
LAKE SUPERIOR

STATION/POSITION TIME  TEMP    WIND        PRES    WAVE
                       AIR SEA DIR/SP/G            HT/PER
                 (UTC) (F)     (DEG/KT/KT) (MB)    (FT/S)
W MID LAKE BUOY  1350   58 57   10/  8/  8 1009.8R   1
DEVILS ISLAND    1400   60      50/  4/  4 1010.6R
PORT WING        1400   63      30/  5/  6 1010.8R
SAXON HARBOR     1400   62      10/ 11/ 14 1010.2R
$$

LMZ867-665-643>646-301600-
LAKE MICHIGAN

STATION/POSITION TIME  TEMP    WIND        PRES    WAVE
                       AIR SEA DIR/SP/G            HT/PER
                 (UTC) (F)     (DEG/KT/KT) (MB)    (FT/S)
N MID LAKE BUOY  1350   67 65  200/ 14/ 17 1007.1F   4/ 5
NORTHPORT PIER   1400   67     160/  6/ 12 1007.1S
SISTER BAY       1241   71     140/  3/  5   N/A
KEWAUNEE LAKESHO 1400   67     210/ 10/ 17 1006.8S
SHEBOYGAN LAKESH 1400   71 56  190/ 15/ 16 1008.3R
ATWATER BUOY     1400   68     190/ 10/ 14 1010.3S
MILWAUKEE LAKESH 1400   73     210/ 16/ 21   N/A
S MID LAKE BUOY  1350   71 69  180/ 12/ 14   N/A
KENOSHA   LAKESH 1400   74     230/ 12/ 18 1009.8S
$$

TC  - TEMPERATURE IN CELSIUS
VSB - VISIBILITY IN STATUTE MILES
WCI - WIND CHILL INDEX
HX  - HEAT INDEX



USA.gov is the U.S. government's official web portal to all federal, state and local government web resources and services.